Theta_e
325 324 324 323 322 322 322 321 320 320 319 317 316 315 314 314 314 314 313 312 311 311 311 310 311 311 312 312 313 315 315 316 318 317 318 320 324 328 329 329 330 327 327
323 323 322 321 321 321 320 319 318 317 316 315 314 313 313 312 312 311 311 310 309 308 308 308 309 309 310 309 309 310 312 313 315 318 316 316 318 319 323 324 324 327 328
322 322 321 321 320 319 318 316 315 314 313 313 312 311 311 310 309 308 307 306 306 306 307 308 309 309 309 310 311 311 310 310 310 311 312 313 314 315 316 319 321 321 324
321 320 320 318 317 315 314 313 312 311 311 310 309 308 307 306 306 305 304 304 305 306 307 308 308 308 308 308 308 308 309 310 311 312 313 312 311 311 313 314 315 315 317
318 317 316 314 313 312 311 310 309 308 308 307 306 305 304 303 303 301 301 302 304 305 306 306 307 306 304 304 304 305 306 307 308 309 309 310 311 313 313 312 312 312 313
315 313 312 311 310 309 308 307 306 305 304 303 302 303 303 303 302 300 297 299 301 303 304 304 305 304 305 303 303 302 302 302 304 306 307 307 308 308 309 309 310 311 315
311 309 308 307 306 305 304 303 303 302 302 302 302 302 303 303 301 297 295 297 301 301 301 301 301 302 301 302 302 301 301 301 301 302 303 304 304 304 305 305 306 307 308
307 306 304 303 302 301 301 301 301 301 301 301 302 302 302 302 299 297 295 299 300 301 301 301 300 301 301 300 300 299 299 300 301 302 302 302 301 304 304 304 304 305 305
302 301 300 299 299 299 299 299 300 300 300 301 301 302 302 301 299 297 296 298 300 300 300 300 300 299 299 299 298 298 299 299 299 299 299 299 299 299 300 301 301 303 303
298 298 298 298 298 298 298 298 299 299 300 300 298 301 301 300 300 297 295 297 297 298 298 299 299 299 299 298 297 298 298 298 299 298 299 300 300 301 300 300 301 302 302
296 296 296 296 296 296 296 296 297 298 298 297 299 300 300 299 298 296 294 294 296 296 297 298 300 299 298 297 296 296 296 296 296 297 297 297 299 300 301 301 301 301 301
294 295 295 295 295 295 295 296 297 296 296 296 298 299 298 298 297 296 295 294 294 295 297 298 298 298 299 299 298 297 296 296 296 297 298 298 299 299 300 301 301 301 302
293 295 295 294 295 295 295 295 295 294 294 295 295 295 295 296 296 296 297 295 295 295 297 297 297 297 299 299 299 298 296 296 298 298 298 299 298 299 300 301 300 300 302
293 294 293 292 293 294 293 293 294 294 293 293 293 293 293 294 295 297 295 295 296 298 299 299 299 301 300 300 299 298 298 297 297 298 299 299 298 298 299 299 300 301 302
292 292 291 291 292 292 293 292 292 293 290 290 291 290 291 291 293 290 289 291 294 295 297 298 300 301 301 301 301 301 300 298 297 297 297 298 298 298 298 298 299 300 301
291 291 290 291 290 291 291 292 291 290 290 289 288 288 288 289 288 289 290 294 296 298 299 300 298 298 298 299 300 301 302 302 299 298 298 298 297 298 299 299 300 300 301
290 291 291 290 290 290 291 292 291 291 291 290 290 289 288 288 288 289 291 296 298 299 297 296 295 296 296 297 298 300 301 303 304 300 299 299 299 299 300 300 302 303 303
290 290 291 291 291 291 292 292 291 291 290 290 290 289 288 288 289 289 291 296 300 301 294 293 293 294 294 296 297 298 299 301 301 303 301 300 300 301 302 304 305 305 304
290 290 290 291 291 292 292 291 291 290 290 290 290 290 289 288 289 289 290 293 297 296 292 291 291 292 293 294 295 297 298 298 298 301 304 302 302 303 305 305 307 308 308
290 289 289 290 291 290 290 290 290 290 289 290 290 289 288 290 289 289 289 291 293 292 291 290 290 290 292 293 294 295 297 296 297 298 300 305 305 306 306 309 311 311 312
289 290 289 290 290 290 290 289 289 289 289 288 289 288 286 288 287 287 286 288 289 290 290 289 289 291 292 292 293 293 294 294 294 295 297 302 307 308 310 313 312 312 312
289 291 291 290 289 289 288 288 288 288 288 288 289 288 287 287 287 286 286 286 286 288 288 288 290 292 293 292 292 292 291 291 292 292 297 304 312 312 313 313 313 311 311
290 290 290 289 288 288 288 287 287 287 287 287 288 288 287 288 287 287 286 285 285 287 287 288 290 291 291 291 291 290 289 289 289 291 296 307 312 312 313 313 312 310 310
289 289 289 288 287 287 287 287 287 287 286 287 287 287 287 287 287 286 286 286 286 286 286 287 288 288 289 290 290 291 289 290 293 296 306 312 315 312 312 312 311 308 307
289 288 288 287 287 286 286 286 286 286 286 286 286 286 286 286 286 286 286 287 287 286 286 286 286 287 288 289 289 293 297 301 303 306 314 316 318 316 312 310 308 306 305
288 288 287 287 286 286 285 285 285 285 285 285 285 285 285 285 285 285 285 286 287 287 287 286 286 286 287 287 289 293 298 302 305 307 312 314 317 317 315 311 308 306 305
Wind_Speed
14 13 11 8 5 3 1 2 3 4 6 7 9 11 13 15 16 17 18 21 22 24 24 25 25 24 25 25 25 25 25 25 18 25 25 23 22 20 23 23 22 23 27
12 11 8 6 3 1 3 5 7 8 9 10 12 14 17 19 20 22 24 26 28 29 28 27 26 24 24 24 26 26 27 26 27 21 24 25 24 24 23 25 26 28 29
10 8 6 4 1 3 5 7 9 11 13 15 16 18 21 23 25 25 27 28 27 26 26 24 23 23 23 23 23 24 26 26 26 26 25 25 25 24 23 24 24 26 27
7 5 4 3 3 5 7 9 12 15 17 19 20 22 24 26 26 26 23 23 24 23 22 21 20 20 20 19 20 21 22 22 22 23 25 25 26 26 26 27 26 27 27
5 4 4 3 5 7 10 12 14 17 19 21 23 24 25 24 21 15 21 21 20 20 20 20 19 18 20 21 19 20 21 21 20 20 21 21 21 21 20 23 25 26 27
5 3 4 6 9 11 14 16 18 21 22 23 23 23 21 19 19 21 17 18 19 18 20 20 20 20 18 16 18 19 18 20 21 21 21 19 20 20 21 18 18 18 12
6 7 9 11 13 15 16 19 20 22 21 21 20 18 17 15 14 19 17 16 18 18 18 19 21 20 21 20 20 20 21 21 22 23 23 22 21 20 21 21 19 18 17
7 9 11 14 16 17 18 19 19 19 19 19 17 15 14 14 18 18 19 16 17 18 19 20 21 22 22 22 22 22 23 22 21 20 20 20 22 21 17 12 14 16 18
10 13 14 15 17 17 17 18 17 17 17 16 15 15 16 15 16 15 20 17 17 19 19 20 22 23 23 24 24 25 25 25 23 24 25 25 25 26 25 20 17 11 6
13 14 15 15 15 15 15 16 16 16 16 15 16 15 15 14 12 17 16 15 17 18 21 21 22 22 23 24 24 25 26 25 24 23 23 22 19 18 20 20 20 16 12
13 13 13 13 14 13 14 15 15 15 15 16 15 15 13 12 13 16 16 15 16 20 21 22 22 24 29 29 28 27 29 30 29 28 25 24 23 23 20 17 20 21 17
12 12 12 13 13 13 13 14 14 14 15 15 15 14 13 14 15 16 17 17 20 19 22 22 27 33 34 31 29 27 27 26 25 22 22 20 20 21 18 17 19 21 23
12 12 12 13 12 13 13 14 13 13 13 14 14 15 16 16 16 16 18 19 21 21 20 27 35 36 29 28 26 25 25 21 20 19 20 20 18 18 17 16 18 21 23
12 12 13 13 14 12 12 12 13 13 14 14 15 15 17 18 17 15 20 21 21 20 23 28 29 26 26 28 28 25 20 20 19 19 19 19 17 17 17 16 17 17 16
13 13 14 13 13 13 13 13 13 12 14 14 14 15 17 19 18 25 24 22 22 22 26 23 24 25 25 24 23 22 21 22 20 22 21 20 18 18 18 18 19 16 15
14 14 14 14 13 14 14 14 13 15 13 9 12 13 14 18 24 23 21 22 19 16 16 20 23 23 23 25 24 25 23 20 22 22 20 19 18 17 17 17 19 18 17
13 14 14 13 12 13 14 14 15 16 13 9 15 17 17 23 19 19 21 18 14 11 17 20 21 23 25 26 26 25 26 25 24 22 20 18 18 17 17 17 16 16 16
11 11 12 11 12 13 13 14 14 15 15 15 13 18 19 21 20 22 22 15 12 10 19 20 23 26 27 27 29 28 30 27 25 20 20 17 17 16 15 14 14 15 16
10 12 12 11 11 13 13 13 14 15 16 15 16 18 21 22 20 21 20 15 15 16 21 24 25 27 29 29 31 30 28 28 28 23 19 16 14 14 13 13 13 14 14
9 10 12 10 11 12 13 14 15 16 17 17 16 20 23 20 22 23 22 19 18 18 21 25 27 28 30 30 32 32 30 29 27 25 24 16 13 11 12 11 9 8 7
9 9 10 10 11 12 13 14 14 15 17 17 17 19 26 20 21 22 23 21 20 20 22 26 27 28 30 33 34 33 32 30 27 27 28 28 11 9 9 6 4 5 13
9 9 10 11 11 13 14 13 14 16 16 17 17 18 21 19 19 20 22 24 22 20 24 26 26 25 28 33 35 34 34 32 31 31 29 26 9 2 2 6 7 8 9
9 10 11 11 12 12 13 14 15 16 17 17 18 19 21 21 21 22 24 24 25 24 26 26 24 26 30 33 34 33 33 34 35 28 25 19 4 3 4 5 7 8 8
9 10 11 12 13 13 14 14 15 16 17 17 19 20 21 22 23 23 25 25 27 27 26 26 23 27 29 33 36 38 37 39 34 29 20 18 1 6 5 6 6 9 11
10 11 11 12 13 13 14 15 16 17 17 18 19 20 21 22 23 24 26 26 27 27 28 27 27 31 30 31 36 37 38 38 37 29 22 17 7 10 8 7 9 12 13
10 11 11 11 12 13 14 15 16 17 17 18 19 20 21 22 24 24 28 28 28 27 27 28 29 31 29 34 37 37 36 35 36 27 23 23 13 8 9 10 10 13 13
Wind_Direction
127 114 111 109 104 102 84 328 321 317 316 314 317 318 316 314 313 311 310 307 305 302 299 295 290 286 284 286 284 280 277 275 276 279 277 275 276 268 270 271 262 248 246
126 120 115 116 108 27 336 335 334 322 315 314 316 313 312 310 310 309 307 307 305 303 302 299 294 291 289 285 281 279 280 281 282 287 283 280 274 271 264 266 269 264 265
131 128 118 102 55 348 336 332 324 317 312 312 314 313 311 310 307 306 305 304 303 303 302 301 298 294 290 288 287 285 282 282 280 280 282 276 274 272 265 259 261 263 263
125 121 104 67 9 346 330 324 320 316 313 313 311 309 307 306 306 305 305 306 305 304 303 302 301 299 298 304 302 299 296 294 292 288 283 277 270 267 265 265 266 262 261
109 99 70 22 336 326 317 318 315 311 307 308 308 307 306 307 309 320 311 307 308 307 305 304 302 304 302 292 291 292 293 288 283 283 284 285 290 301 289 275 265 263 262
77 44 3 335 328 319 317 318 312 307 308 309 308 308 310 311 308 314 317 312 308 306 307 308 307 306 305 309 299 288 280 286 284 281 281 281 283 287 298 304 305 297 284
25 358 337 329 321 312 312 309 307 308 310 310 311 315 315 315 312 320 325 316 308 307 305 304 305 304 307 304 302 298 294 287 276 274 276 275 278 279 281 278 280 282 282
350 333 325 319 311 311 312 312 313 313 315 313 315 316 314 314 318 331 328 319 310 306 302 302 301 301 303 304 305 299 292 285 280 278 276 277 276 281 268 287 287 281 278
341 332 325 319 315 317 317 317 316 315 311 312 313 313 317 321 321 320 328 319 313 309 308 305 302 302 300 299 298 296 292 286 284 280 278 276 278 276 272 274 263 249 256
340 329 321 317 316 316 317 317 317 312 311 315 313 315 319 318 325 325 334 326 316 313 310 310 308 303 303 298 295 291 287 286 290 285 282 280 277 272 268 261 250 240 244
330 323 321 323 322 320 322 319 316 316 314 315 315 318 317 322 319 320 324 317 314 310 306 309 312 309 314 310 302 289 281 285 285 283 279 274 270 271 265 251 248 230 235
336 332 332 331 329 327 323 319 319 318 320 322 321 326 324 322 318 315 316 321 315 305 303 303 302 314 319 314 306 295 293 293 283 275 271 266 262 266 263 255 244 243 238
340 339 338 337 335 331 326 324 325 327 327 329 331 327 322 323 319 318 325 323 319 314 304 302 309 313 322 318 317 309 298 285 276 271 268 266 266 268 263 260 255 252 253
346 345 344 341 339 340 335 331 331 332 330 330 327 323 321 318 320 326 327 323 322 323 320 318 323 322 317 314 309 306 295 280 266 264 266 268 267 262 259 255 253 253 247
357 355 352 349 346 341 345 341 334 334 333 324 322 320 319 315 314 314 316 314 315 314 323 327 331 332 325 322 317 304 289 278 264 261 257 258 257 256 255 253 251 251 247
357 356 350 348 348 348 341 339 336 332 333 340 337 331 321 315 313 318 322 319 319 334 329 336 331 328 325 323 322 318 314 288 267 261 254 251 247 244 247 248 244 237 236
348 344 343 344 344 342 345 343 343 342 349 332 343 349 338 334 335 336 336 327 338 347 357 339 328 327 325 323 323 322 317 324 306 262 256 248 246 248 247 246 245 231 232
347 346 342 338 344 347 345 349 348 346 347 345 341 344 343 345 352 354 354 353 345 360 353 337 328 326 323 324 326 326 325 328 325 298 262 253 245 245 251 252 234 231 227
350 354 350 348 350 346 353 357 358 356 352 349 348 350 348 352 357 2 4 360 345 345 344 335 330 326 325 327 329 331 330 330 323 323 283 259 247 238 247 253 255 255 246
351 348 356 354 357 2 1 2 360 360 0 355 355 360 355 359 4 2 1 356 348 341 337 332 329 328 329 330 332 334 335 335 331 331 322 286 246 228 234 248 241 269 265
350 355 357 6 7 3 4 6 3 359 2 355 354 0 7 5 0 358 355 353 346 340 336 332 328 329 333 335 337 338 340 336 335 332 331 337 218 210 233 245 160 45 99
356 5 12 17 13 13 9 7 6 3 359 354 355 359 3 6 1 358 354 353 349 344 339 336 333 336 338 337 338 339 339 337 337 336 340 351 97 131 120 114 122 90 94
15 18 19 21 18 17 15 13 12 7 5 1 0 1 3 3 360 357 353 350 351 349 346 345 344 344 343 341 343 342 340 337 335 338 332 344 75 99 71 94 99 107 113
25 26 27 23 23 18 17 12 11 10 7 5 4 4 5 2 2 358 357 354 353 354 352 352 351 349 345 344 344 353 353 357 360 357 355 342 122 132 123 118 116 121 130
28 27 26 20 18 15 14 12 11 9 7 7 4 3 3 2 0 360 358 357 356 356 355 354 354 351 351 348 349 1 4 9 13 15 17 12 27 103 110 117 126 123 126
31 26 25 19 17 14 11 8 7 6 5 5 3 2 1 0 360 359 358 357 357 357 357 356 355 354 354 351 356 5 7 12 14 20 27 20 25 74 93 111 123 123 130